This demonstration page uses our WeatherBlox Daily Observations layout. Learn more.

Left ArrowRight Arrow

Hourly Observations for July 29, 2019

Temp ( °F °C ) Dew Point ( °F °C ) Humidity (%) Winds ( mph kmh ) Pressure ( in mb ) Visibility ( mi km ) Precip ( " mm )
12:56 am 00:56 Partly Cloudy 73 22.8 69 20.6 87 87 N 20 31 29.98 1015 10 16 0.00 0.00
1:56 am 01:56 Clear 68 20 64 17.8 87 87 N 8 13 30.00 1016 10 16 0.00 0.00
2:56 am 02:56 Clear 65 18.3 62 16.7 90 90 ENE 5 7 30.00 1016 10 16 0.00 0.00
3:56 am 03:56 Clear 66 18.9 61 16.1 84 84 NNW 3 6 30.01 1016 10 16 0.00 0.00
4:56 am 04:56 Clear 63 17.2 60 15.6 90 90 NW 5 7 30.02 1017 10 16 0.00 0.00
5:56 am 05:56 Clear 63 17.2 59 15 87 87 NW 7 11 30.04 1017 10 16 0.00 0.00
6:56 am 06:56 Sunny 61 16.1 58 14.4 90 90 W 6 9 30.05 1018 10 16 0.00 0.00
7:56 am 07:56 Sunny 65 18.3 59 15 81 81 NNW 6 9 30.06 1018 10 16 0.00 0.00
8:56 am 08:56 Sunny 70 21.1 60 15.6 71 71 NW 3 6 30.07 1018 10 16 0.00 0.00
9:56 am 09:56 Sunny 74 23.3 62 16.7 67 67 NE 5 7 30.07 1018 10 16 0.00 0.00
10:56 am 10:56 Sunny 78 25.6 60 15.6 54 54 N 5 7 30.07 1018 10 16 0.00 0.00
11:56 am 11:56 Sunny 81 27.2 57 13.9 44 44 Calm 30.08 1019 10 16 0.00 0.00
12:56 pm 12:56 Sunny 82 27.8 55 12.8 40 40 Calm 30.07 1018 10 16 0.00 0.00
1:56 pm 13:56 Sunny 84 28.9 57 13.9 40 40 NW 8 13 30.06 1018 10 16 0.00 0.00
2:56 pm 14:56 Sunny 83 28.3 59 15 44 44 E 6 9 30.06 1018 10 16 0.00 0.00
3:56 pm 15:56 Sunny 85 29.4 57 13.9 39 39 E 5 7 30.04 1017 10 16 0.00 0.00
4:56 pm 16:56 Sunny 84 28.9 58 14.4 41 41 E 7 11 30.02 1017 10 16 0.00 0.00
5:56 pm 17:56 Sunny 83 28.3 55 12.8 38 38 ESE 5 7 30.03 1017 10 16 0.00 0.00
6:56 pm 18:56 Partly Cloudy 82 27.8 60 15.6 47 47 ESE 3 6 30.02 1017 10 16 0.00 0.00
7:56 pm 19:56 Mostly Cloudy 79 26.1 65 18.3 62 62 SE 6 9 30.03 1017 10 16 0.00 0.00
8:56 pm 20:56 Mostly Clear 75 23.9 64 17.8 69 69 SE 6 9 30.03 1017 10 16 0.00 0.00
9:56 pm 21:56 Clear 73 22.8 63 17.2 71 71 SE 5 7 30.04 1017 10 16 0.00 0.00
10:56 pm 22:56 Partly Cloudy 68 20 63 17.2 84 84 E 6 9 30.06 1018 10 16 0.00 0.00
11:56 pm 23:56 Clear 67 19.4 63 17.2 87 87 E 8 13 30.06 1018 10 16 0.00 0.00

Powered by AerisWeather